Year,Month,Day,Hour,Minute,Value (Times are PST for temperature in C)
2017,05,27,00,00,15.60
2017,05,27,00,01,15.60
2017,05,27,00,02,15.70
2017,05,27,00,03,15.70
2017,05,27,00,04,15.70
2017,05,27,00,05,15.70
2017,05,27,00,06,15.70
2017,05,27,00,07,15.70
2017,05,27,00,08,15.60
2017,05,27,00,09,15.60
2017,05,27,00,10,15.50
2017,05,27,00,11,15.50
2017,05,27,00,12,15.40
2017,05,27,00,13,15.40
2017,05,27,00,14,15.40
2017,05,27,00,15,15.40
2017,05,27,00,16,15.40
2017,05,27,00,17,15.50
2017,05,27,00,18,15.60
2017,05,27,00,19,15.60
2017,05,27,00,20,15.60
2017,05,27,00,21,15.60
2017,05,27,00,22,15.60
2017,05,27,00,23,15.70
2017,05,27,00,24,15.70
2017,05,27,00,25,15.70
2017,05,27,00,26,15.80
2017,05,27,00,27,15.80
2017,05,27,00,28,15.80
2017,05,27,00,29,15.80
2017,05,27,00,30,15.80
2017,05,27,00,31,15.80
2017,05,27,00,32,15.80
2017,05,27,00,33,15.80
2017,05,27,00,34,15.80
2017,05,27,00,35,15.80
2017,05,27,00,36,15.80
2017,05,27,00,37,15.80
2017,05,27,00,38,15.80
2017,05,27,00,39,15.70
2017,05,27,00,40,15.70
2017,05,27,00,41,15.70
2017,05,27,00,42,15.70
2017,05,27,00,43,15.70
2017,05,27,00,44,15.60
2017,05,27,00,45,15.60
2017,05,27,00,46,15.60
2017,05,27,00,47,15.60
2017,05,27,00,48,15.60
2017,05,27,00,49,15.60
2017,05,27,00,50,15.50
2017,05,27,00,51,15.50
2017,05,27,00,52,15.50
2017,05,27,00,53,15.50
2017,05,27,00,54,15.50
2017,05,27,00,55,15.50
2017,05,27,00,56,15.50
2017,05,27,00,57,15.50
2017,05,27,00,58,15.50
2017,05,27,00,59,15.60
2017,05,27,01,00,15.60
2017,05,27,01,01,15.60
2017,05,27,01,02,15.60
2017,05,27,01,03,15.60
2017,05,27,01,04,15.60
2017,05,27,01,05,15.70
2017,05,27,01,06,15.70
2017,05,27,01,07,15.70
2017,05,27,01,08,15.70
2017,05,27,01,09,15.70
2017,05,27,01,10,15.70
2017,05,27,01,11,15.60
2017,05,27,01,12,15.60
2017,05,27,01,13,15.60
2017,05,27,01,14,15.70
2017,05,27,01,15,15.70
2017,05,27,01,16,15.70
2017,05,27,01,17,15.70
2017,05,27,01,18,15.60
2017,05,27,01,19,15.60
2017,05,27,01,20,15.60
2017,05,27,01,21,15.60
2017,05,27,01,22,15.60
2017,05,27,01,23,15.50
2017,05,27,01,24,15.50
2017,05,27,01,25,15.40
2017,05,27,01,26,15.30
2017,05,27,01,27,15.20
2017,05,27,01,28,15.20
2017,05,27,01,29,15.10
2017,05,27,01,30,15.10
2017,05,27,01,31,15.00
2017,05,27,01,32,15.00
2017,05,27,01,33,14.90
2017,05,27,01,34,14.90
2017,05,27,01,35,14.90
2017,05,27,01,36,14.90
2017,05,27,01,37,14.90
2017,05,27,01,38,14.90
2017,05,27,01,39,14.90
2017,05,27,01,40,14.90
2017,05,27,01,41,14.90
2017,05,27,01,42,14.90
2017,05,27,01,43,14.90
2017,05,27,01,44,14.90
2017,05,27,01,45,14.90
2017,05,27,01,46,14.90
2017,05,27,01,47,14.90
2017,05,27,01,48,14.90
2017,05,27,01,49,14.90
2017,05,27,01,50,14.80
2017,05,27,01,51,14.70
2017,05,27,01,52,14.60
2017,05,27,01,53,14.60
2017,05,27,01,54,14.60
2017,05,27,01,55,14.60
2017,05,27,01,56,14.50
2017,05,27,01,57,14.50
2017,05,27,01,58,14.40
2017,05,27,01,59,14.40
2017,05,27,02,00,14.40
2017,05,27,02,01,14.30
2017,05,27,02,02,14.30
2017,05,27,02,03,14.30
2017,05,27,02,04,14.30
2017,05,27,02,05,14.20
2017,05,27,02,06,14.20
2017,05,27,02,07,14.20
2017,05,27,02,08,14.10
2017,05,27,02,09,14.10
2017,05,27,02,10,14.10
2017,05,27,02,11,14.10
2017,05,27,02,12,14.10
2017,05,27,02,13,14.10
2017,05,27,02,14,14.10
2017,05,27,02,15,14.10
2017,05,27,02,16,14.10
2017,05,27,02,17,14.10
2017,05,27,02,18,14.10
2017,05,27,02,19,14.10
2017,05,27,02,20,14.10
2017,05,27,02,21,14.10
2017,05,27,02,22,14.10
2017,05,27,02,23,14.10
2017,05,27,02,24,14.10
2017,05,27,02,25,14.20
2017,05,27,02,26,14.20
2017,05,27,02,27,14.20
2017,05,27,02,28,14.20
2017,05,27,02,29,14.20
2017,05,27,02,30,14.20
2017,05,27,02,31,14.20
2017,05,27,02,32,14.20
2017,05,27,02,33,14.20
2017,05,27,02,34,14.20
2017,05,27,02,35,14.20
2017,05,27,02,36,14.10
2017,05,27,02,37,14.10
2017,05,27,02,38,14.10
2017,05,27,02,39,14.10
2017,05,27,02,40,14.00
2017,05,27,02,41,14.00
2017,05,27,02,42,13.90
2017,05,27,02,43,13.90
2017,05,27,02,44,13.90
2017,05,27,02,45,13.90
2017,05,27,02,46,13.90
2017,05,27,02,47,13.90
2017,05,27,02,48,13.90
2017,05,27,02,49,13.90
2017,05,27,02,50,13.90
2017,05,27,02,51,14.00
2017,05,27,02,52,14.00
2017,05,27,02,53,14.00
2017,05,27,02,54,14.00
2017,05,27,02,55,14.10
2017,05,27,02,56,14.10
2017,05,27,02,57,14.20
2017,05,27,02,58,14.20
2017,05,27,02,59,14.20
2017,05,27,03,00,14.20
2017,05,27,03,01,14.30
2017,05,27,03,02,14.30
2017,05,27,03,03,14.30
2017,05,27,03,04,14.30
2017,05,27,03,05,14.30
2017,05,27,03,06,14.30
2017,05,27,03,07,14.40
2017,05,27,03,08,14.40
2017,05,27,03,09,14.40
2017,05,27,03,10,14.40
2017,05,27,03,11,14.40
2017,05,27,03,12,14.40
2017,05,27,03,13,14.40
2017,05,27,03,14,14.30
2017,05,27,03,15,14.30
2017,05,27,03,16,14.30
2017,05,27,03,17,14.30
2017,05,27,03,18,14.30
2017,05,27,03,19,14.30
2017,05,27,03,20,14.30
2017,05,27,03,21,14.30
2017,05,27,03,22,14.20
2017,05,27,03,23,14.20
2017,05,27,03,24,14.20
2017,05,27,03,25,14.20
2017,05,27,03,26,14.20
2017,05,27,03,27,14.20
2017,05,27,03,28,14.20
2017,05,27,03,29,14.20
2017,05,27,03,30,14.20
2017,05,27,03,31,14.20
2017,05,27,03,32,14.10
2017,05,27,03,33,14.10
2017,05,27,03,34,14.00
2017,05,27,03,35,13.90
2017,05,27,03,36,13.80
2017,05,27,03,37,13.80
2017,05,27,03,38,13.70
2017,05,27,03,39,13.70
2017,05,27,03,40,13.60
2017,05,27,03,41,13.50
2017,05,27,03,42,13.50
2017,05,27,03,43,13.40
2017,05,27,03,44,13.40
2017,05,27,03,45,13.40
2017,05,27,03,46,13.40
2017,05,27,03,47,13.40
2017,05,27,03,48,13.40
2017,05,27,03,49,13.40
2017,05,27,03,50,13.40
2017,05,27,03,51,13.40
2017,05,27,03,52,13.40
2017,05,27,03,53,13.40
2017,05,27,03,54,13.40
2017,05,27,03,55,13.40
2017,05,27,03,56,13.40
2017,05,27,03,57,13.40
2017,05,27,03,58,13.40
2017,05,27,03,59,13.40
2017,05,27,04,00,13.40
2017,05,27,04,01,13.40
2017,05,27,04,02,13.40
2017,05,27,04,03,13.30
2017,05,27,04,04,13.30
2017,05,27,04,05,13.30
2017,05,27,04,06,13.30
2017,05,27,04,07,13.30
2017,05,27,04,08,13.30
2017,05,27,04,09,13.30
2017,05,27,04,10,13.30
2017,05,27,04,11,13.30
2017,05,27,04,12,13.30
2017,05,27,04,13,13.30
2017,05,27,04,14,13.20
2017,05,27,04,15,13.20
2017,05,27,04,16,13.20
2017,05,27,04,17,13.20
2017,05,27,04,18,13.20
2017,05,27,04,19,13.20
2017,05,27,04,20,13.20
2017,05,27,04,21,13.20
2017,05,27,04,22,13.20
2017,05,27,04,23,13.10
2017,05,27,04,24,13.10
2017,05,27,04,25,13.10
2017,05,27,04,26,13.10
2017,05,27,04,27,13.00
2017,05,27,04,28,13.00
2017,05,27,04,29,12.90
2017,05,27,04,30,12.90
2017,05,27,04,31,12.90
2017,05,27,04,32,12.90
2017,05,27,04,33,12.90
2017,05,27,04,34,12.90
2017,05,27,04,35,12.90
2017,05,27,04,36,12.90
2017,05,27,04,37,12.90
2017,05,27,04,38,12.90
2017,05,27,04,39,12.90
2017,05,27,04,40,13.00
2017,05,27,04,41,13.00
2017,05,27,04,42,13.00
2017,05,27,04,43,13.00
2017,05,27,04,44,13.00
2017,05,27,04,45,13.10
2017,05,27,04,46,13.10
2017,05,27,04,47,13.10
2017,05,27,04,48,13.10
2017,05,27,04,49,13.10
2017,05,27,04,50,13.10
2017,05,27,04,51,13.10
2017,05,27,04,52,13.10
2017,05,27,04,53,13.10
2017,05,27,04,54,13.20
2017,05,27,04,55,13.20
2017,05,27,04,56,13.20
2017,05,27,04,57,13.10
2017,05,27,04,58,13.10
2017,05,27,04,59,13.10
2017,05,27,05,00,13.10
2017,05,27,05,01,13.10
2017,05,27,05,02,13.10
2017,05,27,05,03,13.10
2017,05,27,05,04,13.10
2017,05,27,05,05,13.10
2017,05,27,05,06,13.10
2017,05,27,05,07,13.10
2017,05,27,05,08,13.10
2017,05,27,05,09,13.10
2017,05,27,05,10,13.10
2017,05,27,05,11,13.10
2017,05,27,05,12,13.10
2017,05,27,05,13,13.10
2017,05,27,05,14,13.00
2017,05,27,05,15,13.10
2017,05,27,05,16,13.10
2017,05,27,05,17,13.10
2017,05,27,05,18,13.10
2017,05,27,05,19,13.10
2017,05,27,05,20,13.10
2017,05,27,05,21,13.10
2017,05,27,05,22,13.10
2017,05,27,05,23,13.10
2017,05,27,05,24,13.10
2017,05,27,05,25,13.10
2017,05,27,05,26,13.10
2017,05,27,05,27,13.00
2017,05,27,05,28,13.10
2017,05,27,05,29,13.10
2017,05,27,05,30,13.10
2017,05,27,05,31,13.10
2017,05,27,05,32,13.10
2017,05,27,05,33,13.10
2017,05,27,05,34,13.10
2017,05,27,05,35,13.20
2017,05,27,05,36,13.20
2017,05,27,05,37,13.20
2017,05,27,05,38,13.20
2017,05,27,05,39,13.20
2017,05,27,05,40,13.30
2017,05,27,05,41,13.30
2017,05,27,05,42,13.30
2017,05,27,05,43,13.30
2017,05,27,05,44,13.20
2017,05,27,05,45,13.20
2017,05,27,05,46,13.20
2017,05,27,05,47,13.20
2017,05,27,05,48,13.20
2017,05,27,05,49,13.20
2017,05,27,05,50,13.20
2017,05,27,05,51,13.20
2017,05,27,05,52,13.30
2017,05,27,05,53,13.30
2017,05,27,05,54,13.30
2017,05,27,05,55,13.40
2017,05,27,05,56,13.40
2017,05,27,05,57,13.40
2017,05,27,05,58,13.40
2017,05,27,05,59,13.40
2017,05,27,06,00,13.40
2017,05,27,06,01,13.50
2017,05,27,06,02,13.50
2017,05,27,06,03,13.50
2017,05,27,06,04,13.50
2017,05,27,06,05,13.50
2017,05,27,06,06,13.50
2017,05,27,06,07,13.60
2017,05,27,06,08,13.60
2017,05,27,06,09,13.60
2017,05,27,06,10,13.60
2017,05,27,06,11,13.70
2017,05,27,06,12,13.70
2017,05,27,06,13,13.70
2017,05,27,06,14,13.70
2017,05,27,06,15,13.70
2017,05,27,06,16,13.70
2017,05,27,06,17,13.70
2017,05,27,06,18,13.80
2017,05,27,06,19,13.80
2017,05,27,06,20,13.80
2017,05,27,06,21,13.80
2017,05,27,06,22,13.80
2017,05,27,06,23,13.90
2017,05,27,06,24,13.90
2017,05,27,06,25,14.00
2017,05,27,06,26,14.00
2017,05,27,06,27,14.00
2017,05,27,06,28,14.10
2017,05,27,06,29,14.10
2017,05,27,06,30,14.10
2017,05,27,06,31,14.20
2017,05,27,06,32,14.20
2017,05,27,06,33,14.30
2017,05,27,06,34,14.30
2017,05,27,06,35,14.30
2017,05,27,06,36,14.40
2017,05,27,06,37,14.40
2017,05,27,06,38,14.50
2017,05,27,06,39,14.60
2017,05,27,06,40,14.60
2017,05,27,06,41,14.70
2017,05,27,06,42,14.70
2017,05,27,06,43,14.80
2017,05,27,06,44,14.80
2017,05,27,06,45,14.90
2017,05,27,06,46,14.90
2017,05,27,06,47,15.00
2017,05,27,06,48,15.00
2017,05,27,06,49,15.00
2017,05,27,06,50,15.10
2017,05,27,06,51,15.10
2017,05,27,06,52,15.20
2017,05,27,06,53,15.20
2017,05,27,06,54,15.30
2017,05,27,06,55,15.30
2017,05,27,06,56,15.40
2017,05,27,06,57,15.50
2017,05,27,06,58,15.50
2017,05,27,06,59,15.60
2017,05,27,07,00,15.70
2017,05,27,07,01,15.70
2017,05,27,07,02,15.70
2017,05,27,07,03,15.80
2017,05,27,07,04,15.90
2017,05,27,07,05,16.00
2017,05,27,07,06,16.10
2017,05,27,07,07,16.10
2017,05,27,07,08,16.20
2017,05,27,07,09,16.30
2017,05,27,07,10,16.30
2017,05,27,07,11,16.40
2017,05,27,07,12,16.40
2017,05,27,07,13,16.40
2017,05,27,07,14,16.40
2017,05,27,07,15,16.40
2017,05,27,07,16,16.50
2017,05,27,07,17,16.50
2017,05,27,07,18,16.50
2017,05,27,07,19,16.60
2017,05,27,07,20,16.60
2017,05,27,07,21,16.60
2017,05,27,07,22,16.60
2017,05,27,07,23,16.60
2017,05,27,07,24,16.60
2017,05,27,07,25,16.70
2017,05,27,07,26,16.70
2017,05,27,07,27,16.80
2017,05,27,07,28,16.80
2017,05,27,07,29,16.80
2017,05,27,07,30,16.80
2017,05,27,07,31,16.80
2017,05,27,07,32,16.80
2017,05,27,07,33,16.80
2017,05,27,07,34,16.80
2017,05,27,07,35,16.80
2017,05,27,07,36,16.90
2017,05,27,07,37,16.90
2017,05,27,07,38,16.90
2017,05,27,07,39,16.90
2017,05,27,07,40,16.90
2017,05,27,07,41,16.90
2017,05,27,07,42,17.00
2017,05,27,07,43,17.00
2017,05,27,07,44,17.10
2017,05,27,07,45,17.10
2017,05,27,07,46,17.20
2017,05,27,07,47,17.20
2017,05,27,07,48,17.20
2017,05,27,07,49,17.20
2017,05,27,07,50,17.20
2017,05,27,07,51,17.10
2017,05,27,07,52,17.10
2017,05,27,07,53,17.10
2017,05,27,07,54,17.20
2017,05,27,07,55,17.20
2017,05,27,07,56,17.20
2017,05,27,07,57,17.20
2017,05,27,07,58,17.20
2017,05,27,07,59,17.20
2017,05,27,08,00,17.10
2017,05,27,08,01,17.00
2017,05,27,08,02,17.00
2017,05,27,08,03,17.00
2017,05,27,08,04,17.00
2017,05,27,08,05,17.00
2017,05,27,08,06,17.10
2017,05,27,08,07,17.10
2017,05,27,08,08,17.00
2017,05,27,08,09,16.90
2017,05,27,08,10,16.90
2017,05,27,08,11,16.80
2017,05,27,08,12,16.80
2017,05,27,08,13,16.70
2017,05,27,08,14,16.70
2017,05,27,08,15,16.70
2017,05,27,08,16,16.60
2017,05,27,08,17,16.60
2017,05,27,08,18,16.60
2017,05,27,08,19,16.60
2017,05,27,08,20,16.60
2017,05,27,08,21,16.70
2017,05,27,08,22,16.70
2017,05,27,08,23,16.70
2017,05,27,08,24,16.80
2017,05,27,08,25,16.80
2017,05,27,08,26,16.80
2017,05,27,08,27,16.80
2017,05,27,08,28,16.80
2017,05,27,08,29,16.70
2017,05,27,08,30,16.80
2017,05,27,08,31,16.80
2017,05,27,08,32,16.80
2017,05,27,08,33,16.80
2017,05,27,08,34,16.80
2017,05,27,08,35,16.80
2017,05,27,08,36,16.80
2017,05,27,08,37,16.80
2017,05,27,08,38,16.80
2017,05,27,08,39,16.80
2017,05,27,08,40,16.90
2017,05,27,08,41,16.90
2017,05,27,08,42,17.00
2017,05,27,08,43,17.10
2017,05,27,08,44,17.10
2017,05,27,08,45,17.20
2017,05,27,08,46,17.20
2017,05,27,08,47,17.20
2017,05,27,08,48,17.20
2017,05,27,08,49,17.20
2017,05,27,08,50,17.30
2017,05,27,08,51,17.30
2017,05,27,08,52,17.40
2017,05,27,08,53,17.40
2017,05,27,08,54,17.30
2017,05,27,08,55,17.30
2017,05,27,08,56,17.30
2017,05,27,08,57,17.30
2017,05,27,08,58,17.30
2017,05,27,08,59,17.30
2017,05,27,09,00,17.20
2017,05,27,09,01,17.10
2017,05,27,09,02,17.10
2017,05,27,09,03,17.00
2017,05,27,09,04,16.90
2017,05,27,09,05,16.90
2017,05,27,09,06,16.80
2017,05,27,09,07,16.80
2017,05,27,09,08,16.80
2017,05,27,09,09,16.90
2017,05,27,09,10,16.90
2017,05,27,09,11,17.00
2017,05,27,09,12,17.00
2017,05,27,09,13,17.00
2017,05,27,09,14,17.10
2017,05,27,09,15,17.10
2017,05,27,09,16,17.10
2017,05,27,09,17,17.00
2017,05,27,09,18,17.00
2017,05,27,09,19,17.10
2017,05,27,09,20,17.10
2017,05,27,09,21,17.20
2017,05,27,09,22,17.20
2017,05,27,09,23,17.30
2017,05,27,09,24,17.40
2017,05,27,09,25,17.40
2017,05,27,09,26,17.40
2017,05,27,09,27,17.50
2017,05,27,09,28,17.60
2017,05,27,09,29,17.70
2017,05,27,09,30,17.70
2017,05,27,09,31,17.80
2017,05,27,09,32,17.90
2017,05,27,09,33,17.90
2017,05,27,09,34,17.90
2017,05,27,09,35,17.80
2017,05,27,09,36,17.90
2017,05,27,09,37,17.90
2017,05,27,09,38,17.80
2017,05,27,09,39,17.70
2017,05,27,09,40,17.60
2017,05,27,09,41,17.50
2017,05,27,09,42,17.40
2017,05,27,09,43,17.40
2017,05,27,09,44,17.40
2017,05,27,09,45,17.40
2017,05,27,09,46,17.40
2017,05,27,09,47,17.40
2017,05,27,09,48,17.30
2017,05,27,09,49,17.30
2017,05,27,09,50,17.30
2017,05,27,09,51,17.40
2017,05,27,09,52,17.50
2017,05,27,09,53,17.50
2017,05,27,09,54,17.60
2017,05,27,09,55,17.60
2017,05,27,09,56,17.70
2017,05,27,09,57,17.70
2017,05,27,09,58,17.60
2017,05,27,09,59,17.60
2017,05,27,10,00,17.60
2017,05,27,10,01,17.50
2017,05,27,10,02,17.50
2017,05,27,10,03,17.40
2017,05,27,10,04,17.40
2017,05,27,10,05,17.50
2017,05,27,10,06,17.50
2017,05,27,10,07,17.50
2017,05,27,10,08,17.50
2017,05,27,10,09,17.40
2017,05,27,10,10,17.40
2017,05,27,10,11,17.40
2017,05,27,10,12,17.40
2017,05,27,10,13,17.40
2017,05,27,10,14,17.40
2017,05,27,10,15,17.50
2017,05,27,10,16,17.50
2017,05,27,10,17,17.60
2017,05,27,10,18,17.60
2017,05,27,10,19,17.50
2017,05,27,10,20,17.50
2017,05,27,10,21,17.40
2017,05,27,10,22,17.40
2017,05,27,10,23,17.30
2017,05,27,10,24,17.30
2017,05,27,10,25,17.30
2017,05,27,10,26,17.30
2017,05,27,10,27,17.30
2017,05,27,10,28,17.40
2017,05,27,10,29,17.40
2017,05,27,10,30,17.40
2017,05,27,10,31,17.30
2017,05,27,10,32,17.30
2017,05,27,10,33,17.30
2017,05,27,10,34,17.30
2017,05,27,10,35,17.30
2017,05,27,10,36,17.30
2017,05,27,10,37,17.30
2017,05,27,10,38,17.30
2017,05,27,10,39,17.30
2017,05,27,10,40,17.20
2017,05,27,10,41,17.20
2017,05,27,10,42,17.10
2017,05,27,10,43,17.10
2017,05,27,10,44,17.10
2017,05,27,10,45,17.10
2017,05,27,10,46,17.10
2017,05,27,10,47,17.10
2017,05,27,10,48,17.10
2017,05,27,10,49,17.10
2017,05,27,10,50,17.10
2017,05,27,10,51,17.10
2017,05,27,10,52,17.10
2017,05,27,10,53,17.10
2017,05,27,10,54,17.10
2017,05,27,10,55,17.10
2017,05,27,10,56,17.10
2017,05,27,10,57,17.10
2017,05,27,10,58,17.20
2017,05,27,10,59,17.20
2017,05,27,11,00,17.30
2017,05,27,11,01,17.30
2017,05,27,11,02,17.40
2017,05,27,11,03,17.40
2017,05,27,11,04,17.40
2017,05,27,11,05,17.50
2017,05,27,11,06,17.40
2017,05,27,11,07,17.50
2017,05,27,11,08,17.40
2017,05,27,11,09,17.50
2017,05,27,11,10,17.50
2017,05,27,11,11,17.50
2017,05,27,11,12,17.50
2017,05,27,11,13,17.50
2017,05,27,11,14,17.50
2017,05,27,11,15,17.60
2017,05,27,11,16,17.60
2017,05,27,11,17,17.70
2017,05,27,11,18,17.80
2017,05,27,11,19,17.80
2017,05,27,11,20,17.80
2017,05,27,11,21,17.80
2017,05,27,11,22,17.90
2017,05,27,11,23,17.90
2017,05,27,11,24,17.90
2017,05,27,11,25,17.90
2017,05,27,11,26,17.90
2017,05,27,11,27,18.00
2017,05,27,11,28,18.00
2017,05,27,11,29,18.00
2017,05,27,11,30,18.10
2017,05,27,11,31,18.10
2017,05,27,11,32,18.20
2017,05,27,11,33,18.20
2017,05,27,11,34,18.30
2017,05,27,11,35,18.40
2017,05,27,11,36,18.40
2017,05,27,11,37,18.40
2017,05,27,11,38,18.40
2017,05,27,11,39,18.50
2017,05,27,11,40,18.50
2017,05,27,11,41,18.60
2017,05,27,11,42,18.60
2017,05,27,11,43,18.70
2017,05,27,11,44,18.60
2017,05,27,11,45,18.50
2017,05,27,11,46,18.40
2017,05,27,11,47,18.30
2017,05,27,11,48,18.30
2017,05,27,11,49,18.20
2017,05,27,11,50,18.20
2017,05,27,11,51,18.20
2017,05,27,11,52,18.20
2017,05,27,11,53,18.10
2017,05,27,11,54,18.10
2017,05,27,11,55,18.10
2017,05,27,11,56,18.10
2017,05,27,11,57,18.00
2017,05,27,11,58,18.00
2017,05,27,11,59,18.00
2017,05,27,12,00,18.10
2017,05,27,12,01,18.10
2017,05,27,12,02,18.10
2017,05,27,12,03,18.20
2017,05,27,12,04,18.20
2017,05,27,12,05,18.30
2017,05,27,12,06,18.30
2017,05,27,12,07,18.40
2017,05,27,12,08,18.50
2017,05,27,12,09,18.60
2017,05,27,12,10,18.70
2017,05,27,12,11,18.80
2017,05,27,12,12,18.80
2017,05,27,12,13,18.90
2017,05,27,12,14,18.90
2017,05,27,12,15,18.90
2017,05,27,12,16,19.00
2017,05,27,12,17,19.00
2017,05,27,12,18,19.10
2017,05,27,12,19,19.10
2017,05,27,12,20,19.10
2017,05,27,12,21,19.10
2017,05,27,12,22,19.10
2017,05,27,12,23,19.20
2017,05,27,12,24,19.20
2017,05,27,12,25,19.20
2017,05,27,12,26,19.20
2017,05,27,12,27,19.20
2017,05,27,12,28,19.20
2017,05,27,12,29,19.20
2017,05,27,12,30,19.20
2017,05,27,12,31,19.20
2017,05,27,12,32,19.20
2017,05,27,12,33,19.20
2017,05,27,12,34,19.30
2017,05,27,12,35,19.20
2017,05,27,12,36,19.20
2017,05,27,12,37,19.20
2017,05,27,12,38,19.20
2017,05,27,12,39,19.20
2017,05,27,12,40,19.20
2017,05,27,12,41,19.20
2017,05,27,12,42,19.20
2017,05,27,12,43,19.20
2017,05,27,12,44,19.10
2017,05,27,12,45,19.20
2017,05,27,12,46,19.20
2017,05,27,12,47,19.20
2017,05,27,12,48,19.20
2017,05,27,12,49,19.30
2017,05,27,12,50,19.30
2017,05,27,12,51,19.30
2017,05,27,12,52,19.30
2017,05,27,12,53,19.30
2017,05,27,12,54,19.30
2017,05,27,12,55,19.20
2017,05,27,12,56,19.20
2017,05,27,12,57,19.20
2017,05,27,12,58,19.20
2017,05,27,12,59,19.20
2017,05,27,13,00,19.20
2017,05,27,13,01,19.20
2017,05,27,13,02,19.20
2017,05,27,13,03,19.20
2017,05,27,13,04,19.20
2017,05,27,13,05,19.20
2017,05,27,13,06,19.30
2017,05,27,13,07,19.30
2017,05,27,13,08,19.30
2017,05,27,13,09,19.30
2017,05,27,13,10,19.30
2017,05,27,13,11,19.30
2017,05,27,13,12,19.20
2017,05,27,13,13,19.20
2017,05,27,13,14,19.20
2017,05,27,13,15,19.20
2017,05,27,13,16,19.20
2017,05,27,13,17,19.30
2017,05,27,13,18,19.40
2017,05,27,13,19,19.50
2017,05,27,13,20,19.60
2017,05,27,13,21,19.70
2017,05,27,13,22,19.80
2017,05,27,13,23,19.90
2017,05,27,13,24,20.00
2017,05,27,13,25,20.10
2017,05,27,13,26,20.10
2017,05,27,13,27,20.10
2017,05,27,13,28,20.20
2017,05,27,13,29,20.20
2017,05,27,13,30,20.30
2017,05,27,13,31,20.40
2017,05,27,13,32,20.40
2017,05,27,13,33,20.40
2017,05,27,13,34,20.40
2017,05,27,13,35,20.40
2017,05,27,13,36,20.40
2017,05,27,13,37,20.40
2017,05,27,13,38,20.50
2017,05,27,13,39,20.50
2017,05,27,13,40,20.50
2017,05,27,13,41,20.50
2017,05,27,13,42,20.40
2017,05,27,13,43,20.40
2017,05,27,13,44,20.40
2017,05,27,13,45,20.40
2017,05,27,13,46,20.40
2017,05,27,13,47,20.40
2017,05,27,13,48,20.40
2017,05,27,13,49,20.40
2017,05,27,13,50,20.40
2017,05,27,13,51,20.50
2017,05,27,13,52,20.50
2017,05,27,13,53,20.50
2017,05,27,13,54,20.40
2017,05,27,13,55,20.40
2017,05,27,13,56,20.40
2017,05,27,13,57,20.50
2017,05,27,13,58,20.50
2017,05,27,13,59,20.60
2017,05,27,14,00,20.60
2017,05,27,14,01,20.60
2017,05,27,14,02,20.60
2017,05,27,14,03,20.60
2017,05,27,14,04,20.50
2017,05,27,14,05,20.50
2017,05,27,14,06,20.40
2017,05,27,14,07,20.40
2017,05,27,14,08,20.40
2017,05,27,14,09,20.40
2017,05,27,14,10,20.40
2017,05,27,14,11,20.40
2017,05,27,14,12,20.40
2017,05,27,14,13,20.50
2017,05,27,14,14,20.50
2017,05,27,14,15,20.50
2017,05,27,14,16,20.50
2017,05,27,14,17,20.50
2017,05,27,14,18,20.40
2017,05,27,14,19,20.40
2017,05,27,14,20,20.40
2017,05,27,14,21,20.50
2017,05,27,14,22,20.60
2017,05,27,14,23,20.70
2017,05,27,14,24,20.80
2017,05,27,14,25,20.80
2017,05,27,14,26,20.90
2017,05,27,14,27,20.90
2017,05,27,14,28,20.90
2017,05,27,14,29,20.90
2017,05,27,14,30,20.80
2017,05,27,14,31,20.80
2017,05,27,14,32,20.80
2017,05,27,14,33,20.80
2017,05,27,14,34,20.80
2017,05,27,14,35,20.80
2017,05,27,14,36,20.80
2017,05,27,14,37,20.80
2017,05,27,14,38,20.90
2017,05,27,14,39,21.00
2017,05,27,14,40,21.10
2017,05,27,14,41,21.20
2017,05,27,14,42,21.30
2017,05,27,14,43,21.40
2017,05,27,14,44,21.50
2017,05,27,14,45,21.60
2017,05,27,14,46,21.60
2017,05,27,14,47,21.70
2017,05,27,14,48,21.70
2017,05,27,14,49,21.80
2017,05,27,14,50,21.90
2017,05,27,14,51,22.00
2017,05,27,14,52,22.10
2017,05,27,14,53,22.10
2017,05,27,14,54,22.20
2017,05,27,14,55,22.30
2017,05,27,14,56,22.30
2017,05,27,14,57,22.30
2017,05,27,14,58,22.30
2017,05,27,14,59,22.30
2017,05,27,15,00,22.40
2017,05,27,15,01,22.40
2017,05,27,15,02,22.50
2017,05,27,15,03,22.60
2017,05,27,15,04,22.60
2017,05,27,15,05,22.60
2017,05,27,15,06,22.60
2017,05,27,15,07,22.60
2017,05,27,15,08,22.50
2017,05,27,15,09,22.50
2017,05,27,15,10,22.50
2017,05,27,15,11,22.60
2017,05,27,15,12,22.60
2017,05,27,15,13,22.60
2017,05,27,15,14,22.60
2017,05,27,15,15,22.70
2017,05,27,15,16,22.70
2017,05,27,15,17,22.70
2017,05,27,15,18,22.80
2017,05,27,15,19,22.80
2017,05,27,15,20,22.80
2017,05,27,15,21,22.80
2017,05,27,15,22,22.80
2017,05,27,15,23,22.80
2017,05,27,15,24,22.80
2017,05,27,15,25,22.80
2017,05,27,15,26,22.80
2017,05,27,15,27,22.80
2017,05,27,15,28,22.70
2017,05,27,15,29,22.50
2017,05,27,15,30,22.30
2017,05,27,15,31,22.10
2017,05,27,15,32,21.90
2017,05,27,15,33,21.80
2017,05,27,15,34,21.80
2017,05,27,15,35,21.70
2017,05,27,15,36,21.70
2017,05,27,15,37,21.80
2017,05,27,15,38,21.80
2017,05,27,15,39,21.80
2017,05,27,15,40,21.70
2017,05,27,15,41,21.50
2017,05,27,15,42,21.40
2017,05,27,15,43,21.30
2017,05,27,15,44,21.30
2017,05,27,15,45,21.30
2017,05,27,15,46,21.30
2017,05,27,15,47,21.40
2017,05,27,15,48,21.50
2017,05,27,15,49,21.60
2017,05,27,15,50,21.70
2017,05,27,15,51,21.70
2017,05,27,15,52,21.80
2017,05,27,15,53,21.80
2017,05,27,15,54,21.80
2017,05,27,15,55,21.80
2017,05,27,15,56,21.80
2017,05,27,15,57,21.80
2017,05,27,15,58,21.80
2017,05,27,15,59,21.80
2017,05,27,16,00,21.70
2017,05,27,16,01,21.70
2017,05,27,16,02,21.70
2017,05,27,16,03,21.70
2017,05,27,16,04,21.60
2017,05,27,16,05,21.60
2017,05,27,16,06,21.60
2017,05,27,16,07,21.50
2017,05,27,16,08,21.50
2017,05,27,16,09,21.60
2017,05,27,16,10,21.60
2017,05,27,16,11,21.60
2017,05,27,16,12,21.60
2017,05,27,16,13,21.60
2017,05,27,16,14,21.60
2017,05,27,16,15,21.70
2017,05,27,16,16,21.70
2017,05,27,16,17,21.70
2017,05,27,16,18,21.70
2017,05,27,16,19,21.60
2017,05,27,16,20,21.60
2017,05,27,16,21,21.50
2017,05,27,16,22,21.40
2017,05,27,16,23,21.40
2017,05,27,16,24,21.40
2017,05,27,16,25,21.40
2017,05,27,16,26,21.40
2017,05,27,16,27,21.40
2017,05,27,16,28,21.40
2017,05,27,16,29,21.40
2017,05,27,16,30,21.40
2017,05,27,16,31,21.50
2017,05,27,16,32,21.50
2017,05,27,16,33,21.60
2017,05,27,16,34,21.60
2017,05,27,16,35,21.70
2017,05,27,16,36,21.70
2017,05,27,16,37,21.70
2017,05,27,16,38,21.80
2017,05,27,16,39,21.70
2017,05,27,16,40,21.70
2017,05,27,16,41,21.70
2017,05,27,16,42,21.60
2017,05,27,16,43,21.60
2017,05,27,16,44,21.50
2017,05,27,16,45,21.30
2017,05,27,16,46,21.20
2017,05,27,16,47,21.10
2017,05,27,16,48,21.00
2017,05,27,16,49,20.90
2017,05,27,16,50,20.80
2017,05,27,16,51,20.80
2017,05,27,16,52,20.80
2017,05,27,16,53,20.80
2017,05,27,16,54,20.90
2017,05,27,16,55,21.00
2017,05,27,16,56,21.10
2017,05,27,16,57,21.20
2017,05,27,16,58,21.30
2017,05,27,16,59,21.30
2017,05,27,17,00,21.30
2017,05,27,17,01,21.30
2017,05,27,17,02,21.20
2017,05,27,17,03,21.10
2017,05,27,17,04,21.10
2017,05,27,17,05,21.00
2017,05,27,17,06,21.00
2017,05,27,17,07,20.90
2017,05,27,17,08,21.00
2017,05,27,17,09,21.10
2017,05,27,17,10,21.10
2017,05,27,17,11,21.10
2017,05,27,17,12,21.10
2017,05,27,17,13,21.10
2017,05,27,17,14,21.10
2017,05,27,17,15,21.10
2017,05,27,17,16,21.10
2017,05,27,17,17,21.20
2017,05,27,17,18,21.20
2017,05,27,17,19,21.30